Location: Unspecified
(0.0000°N, 0.0000°E)
Time: 02:25:32
(UTC+00:00)

LilacSat-2 - Visible Passes

Search period start: 22 January 2018 00:00
Search period end: 01 February 2018 00:00
Orbit: 514 x 537 km, 97.5° (Epoch: 20 January)

Date Brightness Start Highest point End Pass type
(mag) Time Alt. Az. Time Alt. Az. Time Alt. Az.
24 Jan ? 05:46:59 10° N 05:50:41 71° W 05:54:26 10° SSW visible
25 Jan ? 05:35:17 10° NNE 05:39:00 72° E 05:42:45 10° S visible
26 Jan ? 05:23:44 10° NNE 05:27:18 44° E 05:30:55 10° S visible
27 Jan ? 05:12:22 10° NE 05:15:37 28° ESE 05:18:54 10° SSE visible
27 Jan ? 18:43:38 10° WSW 18:43:51 10° WSW 18:44:05 10° W visible
28 Jan ? 05:01:15 10° NE 05:03:57 19° ESE 05:06:39 10° SSE visible
29 Jan ? 04:50:37 10° ENE 04:52:16 13° ESE 04:53:55 10° SE visible
